Погода в Песчаном

Казахстан     52°59′55″N   76°18′19″E
темп.,
°C
ветер,
м/с
пор.,
м/с
влажн.,
%
обл.,
%
осадки,
мм/ч
давл.,
гПа
погр.,
м
25 февраля, чт
чт2500:00−22ююз5118792 0.2 1015263
03:00−25ююз511874 0.0 1015192
06:00−24ююз6138831 0.0 1016285
09:00−22юз61289100 0.0 1017736
12:00−21юз7108599 0.1 10171174
15:00−20юз71085100 0.1 10181404
18:00−21зюз51095100 0.1 1020480
21:00−23з61192100 0.1 1023540
26 февраля, пт
пт2600:00−23з5119697 0.1 1025426
03:00−25з61295100 0.0 1027353
06:00−29з5109696 0.1 1031250
09:00−31зюз5109573 0.0 1034231
12:00−27зюз589473 0.0 1036380
15:00−25зюз5893100 0.0 1037461
18:00−27юз4695100 0.0 103788
21:00−29юз34941 0.0 103849
27 февраля, сб
сб2700:00−30юз44931 0.0 103857
03:00−31юз34940 0.0 103849
06:00−32юз34940 0.0 103840
09:00−31ююз33930 0.0 103855
12:00−26ююз46900 0.0 1038253
15:00−23ю35890 0.0 1037282
18:00−25ююв34930 0.0 103548
21:00−24ююв499365 0.0 1032140
28 февраля, вс
вс2800:00−22ююв5109177 0.0 1030153
03:00−20ююв598951 0.0 1028192
06:00−16ююв6128575 0.0 1025297
09:00−14ю81494100 0.2 1021493
12:00−8ю91493100 1.4 1017893
15:00−4ююз81291100 0.8 1014951
18:00−4ююз61192100 0.9 1011526
21:00−3ююз61196100 0.1 1010384
1 марта, пн
пн100:00−1ююз61488100 0.4 1010539
03:000юз91597100 0.2 1008607
06:000юз81498100 1.5 1008734
09:00+1зюз91498100 0.3 1008785
12:000зюз7138579 0.3 1009909
15:00+1зюз7128864 0.1 1009976
18:00−1юз4119473 0.2 1009590
21:00−3зюз7139199 0.1 1011576